Weather History for Tampa Knight Airport, FL

Change the Weather History Date:

Monday, October 15, 2012

  Actual Average (KTPA) Record (KTPA)
Temperature  
Mean Temperature 78 °F 76 °F  
Max Temperature 86 °F 85 °F 92 °F (1990)
Min Temperature 71 °F 68 °F 47 °F (1977)
Degree Days  
Heating Degree Days 0 0  
Month to date heating degree days 0  
Since 1 July heating degree days 0  
Cooling Degree Days 14 12  
Month to date cooling degree days 197  
Year to date cooling degree days 3213  
Growing Degree Days 28 (Base 50)    
Moisture  
Dew Point 69 °F    
Average Humidity 75    
Maximum Humidity 94    
Minimum Humidity 54    
Precipitation  
Precipitation 0.03 in 0.06 in 2.78 in (1895)
Month to date precipitation 1.35  
Year to date precipitation 41.37  
Sea Level Pressure  
Sea Level Pressure 29.91 in    
Wind  
Wind Speed 4 mph (North)    
Max Wind Speed 10 mph    
Max Gust Speed 17 mph    
Visibility 10 miles    
Events Rain    
T = Trace of Precipitation, MM = Missing Value Source: NWS Daily Summary

Daily Weather History Graph

Daily Weather History Graph

Search for Another Location

Airport:

Trip Planner

Search our weather history database for the weather conditions in past years. The results will help you decide how hot, cold, wet, or windy it might be!

Date:

Astronomy

Oct. 15, 2012 Rise Set
Actual Time 7:30 AM EDT 7:00 PM EDT
Civil Twilight 7:06 AM EDT 7:23 PM EDT
Nautical Twilight 6:39 AM EDT 7:50 PM EDT
Astronomical Twilight 6:12 AM EDT 8:18 PM EDT
Moon 7:34 AM EDT (10/15) 7:05 PM EDT (10/15)
Length of Visible Light 12h 16m
Length of Day
11h 29m
New Moon, 0% of the Moon is Illuminated
Oct 15
New Moon
Oct 21
First Quarter
Oct 29
Full
Nov 6
Last Quarter
Nov 13
New

Hourly Weather History & Observations

Time (EDT) Temp. Heat Index Dew Point Humidity Pressure Visibility Wind Dir Wind Speed Gust Speed Precip Events Conditions
12:15 AM 73.4 °F - 68.0 °F 83% 29.99 in 10.0 mi ENE 3.5 mph - N/A   Clear
12:35 AM 73.4 °F - 68.0 °F 83% 29.99 in 10.0 mi NE 4.6 mph - N/A   Clear
12:55 AM 73.4 °F - 68.0 °F 83% 29.99 in 10.0 mi NNE 3.5 mph - N/A   Clear
1:15 AM 73.4 °F - 68.0 °F 83% 29.98 in 10.0 mi NE 5.8 mph - N/A   Clear
1:35 AM 73.4 °F - 68.0 °F 83% 29.98 in 10.0 mi NNE 5.8 mph - N/A   Clear
1:55 AM 73.4 °F - 68.0 °F 83% 29.97 in 10.0 mi NE 4.6 mph - N/A   Clear
2:15 AM 73.4 °F - 68.0 °F 83% 29.97 in 10.0 mi NNE 4.6 mph - N/A   Clear
2:35 AM 71.6 °F - 68.0 °F 88% 29.96 in 10.0 mi NE 4.6 mph - N/A   Clear
2:55 AM 71.6 °F - 68.0 °F 88% 29.95 in 10.0 mi NNE 3.5 mph - N/A   Clear
3:15 AM 71.6 °F - 68.0 °F 88% 29.95 in 10.0 mi NNE 4.6 mph - N/A   Clear
3:35 AM 71.6 °F - 68.0 °F 88% 29.94 in 10.0 mi NE 5.8 mph - N/A   Clear
3:55 AM 71.6 °F - 68.0 °F 88% 29.93 in 10.0 mi NNE 3.5 mph - N/A   Mostly Cloudy
4:15 AM 71.6 °F - 68.0 °F 88% 29.93 in 10.0 mi North 4.6 mph - N/A   Overcast
4:35 AM 73.4 °F - 68.0 °F 83% 29.93 in 10.0 mi North 4.6 mph - N/A   Overcast
4:55 AM 71.6 °F - 68.0 °F 88% 29.93 in 10.0 mi North 3.5 mph - N/A   Mostly Cloudy
5:15 AM 71.6 °F - 68.0 °F 88% 29.93 in 10.0 mi NNE 3.5 mph - N/A   Mostly Cloudy
5:55 AM 71.6 °F - 68.0 °F 88% 29.93 in 10.0 mi NNE 4.6 mph - N/A   Overcast
6:15 AM 71.6 °F - 68.0 °F 88% 29.92 in 10.0 mi NE 6.9 mph - N/A   Mostly Cloudy
6:55 AM 71.6 °F - 69.8 °F 94% 29.93 in 10.0 mi NNE 4.6 mph - N/A   Overcast
7:15 AM 73.4 °F - 69.8 °F 88% 29.93 in 7.0 mi NE 6.9 mph - N/A   Overcast
7:35 AM 71.6 °F - 69.8 °F 94% 29.93 in 10.0 mi NNE 4.6 mph - N/A   Mostly Cloudy
7:55 AM 71.6 °F - 69.8 °F 94% 29.94 in 7.0 mi NNE 5.8 mph - N/A   Scattered Clouds
8:15 AM 73.4 °F - 69.8 °F 88% 29.95 in 7.0 mi NNE 4.6 mph - N/A   Clear
8:55 AM 75.2 °F - 69.8 °F 83% 29.95 in 7.0 mi NE 6.9 mph - N/A   Clear
9:15 AM 77.0 °F - 69.8 °F 78% 29.96 in 10.0 mi NE 5.8 mph - N/A   Mostly Cloudy
9:35 AM 77.0 °F - 69.8 °F 78% 29.96 in 10.0 mi NE 5.8 mph - N/A   Overcast
9:55 AM 78.8 °F - 69.8 °F 74% 29.97 in 10.0 mi NNE 4.6 mph - N/A   Mostly Cloudy
10:15 AM 78.8 °F - 69.8 °F 74% 29.97 in 10.0 mi NE 4.6 mph - N/A   Overcast
10:35 AM 80.6 °F 83.9 °F 69.8 °F 70% 29.97 in 10.0 mi NNW 3.5 mph - N/A   Overcast
10:55 AM 82.4 °F 86.3 °F 69.8 °F 66% 29.96 in 10.0 mi ENE 4.6 mph - N/A   Overcast
11:15 AM 84.2 °F 88.4 °F 69.8 °F 62% 29.96 in 10.0 mi Calm Calm - N/A   Scattered Clouds
11:35 AM 86.0 °F 90.4 °F 69.8 °F 58% 29.96 in 10.0 mi NE 3.5 mph - N/A   Mostly Cloudy
11:55 AM 82.4 °F 86.3 °F 69.8 °F 66% 29.96 in 10.0 mi Calm Calm - N/A   Overcast
12:35 PM 84.2 °F 89.6 °F 71.6 °F 66% 29.93 in 10.0 mi SSE 4.6 mph - N/A   Scattered Clouds
1:15 PM 82.4 °F 86.3 °F 69.8 °F 66% 29.91 in 10.0 mi WSW 4.6 mph - N/A   Mostly Cloudy
1:35 PM 82.4 °F 86.3 °F 69.8 °F 66% 29.91 in 10.0 mi WSW 3.5 mph - N/A   Overcast
1:55 PM 82.4 °F 87.2 °F 71.6 °F 70% 29.90 in 7.0 mi West 4.6 mph - 0.01 in Rain Rain
2:15 PM 80.6 °F 84.6 °F 71.6 °F 74% 29.89 in 10.0 mi Calm Calm - 0.02 in   Mostly Cloudy
2:35 PM 82.4 °F 86.3 °F 69.8 °F 66% 29.88 in 10.0 mi West 5.8 mph - 0.02 in   Mostly Cloudy
2:55 PM 82.4 °F 85.4 °F 68.0 °F 62% 29.87 in 10.0 mi Calm Calm - 0.02 in Rain Light Rain
3:15 PM 84.2 °F 88.4 °F 69.8 °F 62% 29.86 in 10.0 mi West 4.6 mph - N/A   Scattered Clouds
3:35 PM 84.2 °F 88.4 °F 69.8 °F 62% 29.85 in 10.0 mi West 5.8 mph - N/A   Clear
3:55 PM 82.4 °F 86.3 °F 69.8 °F 66% 29.85 in 10.0 mi West 3.5 mph - N/A   Mostly Cloudy
4:15 PM 82.4 °F 86.3 °F 69.8 °F 66% 29.84 in 10.0 mi WSW 3.5 mph - N/A   Scattered Clouds
4:35 PM 84.2 °F 87.3 °F 68.0 °F 58% 29.83 in 10.0 mi Calm Calm - N/A   Mostly Cloudy
4:55 PM 84.2 °F 87.3 °F 68.0 °F 58% 29.83 in 10.0 mi NNW 3.5 mph - N/A   Mostly Cloudy
5:15 PM 82.4 °F 85.4 °F 68.0 °F 62% 29.83 in 10.0 mi NNW 5.8 mph - N/A   Overcast
5:35 PM 82.4 °F 85.4 °F 68.0 °F 62% 29.83 in 10.0 mi NNW 10.4 mph 17.3 mph N/A   Mostly Cloudy
5:55 PM 82.4 °F 83.9 °F 64.4 °F 54% 29.83 in 10.0 mi North 4.6 mph - N/A   Scattered Clouds
6:15 PM 80.6 °F 82.3 °F 64.4 °F 58% 29.84 in 10.0 mi North 6.9 mph - N/A   Scattered Clouds
6:35 PM 80.6 °F 82.3 °F 64.4 °F 58% 29.84 in 10.0 mi NNW 5.8 mph - N/A   Mostly Cloudy
6:55 PM 80.6 °F 81.8 °F 62.6 °F 54% 29.84 in 10.0 mi North 4.6 mph - N/A   Scattered Clouds
7:15 PM 78.8 °F - 64.4 °F 61% 29.84 in 10.0 mi Calm Calm - N/A   Clear
7:35 PM 78.8 °F - 64.4 °F 61% 29.84 in 10.0 mi North 4.6 mph - N/A   Clear
7:55 PM 78.8 °F - 64.4 °F 61% 29.85 in 10.0 mi NNW 4.6 mph - N/A   Mostly Cloudy
8:15 PM 78.8 °F - 66.2 °F 65% 29.85 in 10.0 mi North 4.6 mph - N/A   Overcast
8:35 PM 78.8 °F - 68.0 °F 69% 29.86 in 10.0 mi North 3.5 mph - N/A   Mostly Cloudy
8:55 PM 77.0 °F - 68.0 °F 74% 29.86 in 10.0 mi North 3.5 mph - N/A   Clear
9:15 PM 77.0 °F - 68.0 °F 74% 29.87 in 10.0 mi North 4.6 mph - N/A   Clear
9:35 PM 77.0 °F - 69.8 °F 78% 29.88 in 10.0 mi Calm Calm - N/A   Clear
9:55 PM 75.2 °F - 69.8 °F 83% 29.87 in 10.0 mi North 4.6 mph - N/A   Clear
10:15 PM 75.2 °F - 69.8 °F 83% 29.87 in 10.0 mi NNW 4.6 mph - N/A   Clear
10:35 PM 75.2 °F - 69.8 °F 83% 29.88 in 10.0 mi Calm Calm - N/A   Clear
10:55 PM 75.2 °F - 69.8 °F 83% 29.88 in 10.0 mi North 3.5 mph - N/A   Clear
11:15 PM 75.2 °F - 69.8 °F 83% 29.88 in 10.0 mi Calm Calm - N/A   Clear
11:35 PM 73.4 °F - 69.8 °F 88% 29.88 in 10.0 mi Calm Calm - N/A   Clear
11:55 PM 73.4 °F - 69.8 °F 88% 29.88 in 10.0 mi Calm Calm - N/A   Clear